Location: Narragansett
(41.4496°N, 71.4488°W)
Time: 03:37:29
(UTC+00:00)

Nauka - Pass Details

Date: 20 September 2021
Orbit: 417 x 423 km, 51.6° (Epoch: 19 October)

Event Time Altitude Azimuth Distance (km) Brightness Sun altitude
Rises 00:10:51 0° 257° (WSW) 2,354 ? -16.2°
Reaches altitude 10° 00:13:04 10° 267° (W) 1,494 ? -16.6°
Maximum altitude 00:16:08 33° 334° (NNW) 724 ? -17.1°
Enters shadow 00:18:27 15° 34° (NNE) 1,217 ? -17.6°
